Location: Memphis International Airport Police
(35.0443°N, 89.9815°W)
Time: 18:14:30
(UTC+00:00)

USA 215 - Pass Details

Date: 26 September 2023
Orbit: 1098 x 1109 km, 123.0° (Epoch: 06 December)

Event Time Altitude Azimuth Distance (km) Brightness Sun altitude
Rises 08:46:31 0° 114° (ESE) 3,901 6.6 -37.1°
Reaches altitude 10° 08:49:05 10° 109° (ESE) 2,946 5.9 -36.6°
Maximum altitude 08:55:13 47° 38° (NE) 1,430 4.0 -35.5°
Enters shadow 08:57:57 31° 346° (NNW) 1,837 4.4 -35.0°
